Meteo pe oră la Dziecinin

Astăzi, 16 Ianuarie, Sâmbătă

Timp Temperatura Precipitaţii Vânt Presiune Umiditate
00:00 -17°C° 0 mm 4 m/s 742 mmHg 93%
01:00 -17°C° 0 mm 3 m/s 743 mmHg 93%
02:00 -17°C° 0 mm 3 m/s 742 mmHg 94%
03:00 -17°C° 0 mm 3 m/s 742 mmHg 94%
04:00 -16°C° 0 mm 3 m/s 743 mmHg 93%
05:00 -16°C° 0 mm 3 m/s 743 mmHg 93%
06:00 -16°C° 0 mm 3 m/s 743 mmHg 94%
07:00 -16°C° 0 mm 3 m/s 743 mmHg 94%
08:00 -16°C° 0 mm 3 m/s 743 mmHg 94%
09:00 -15°C° 0 mm 3 m/s 743 mmHg 93%
10:00 -14°C° 0 mm 3 m/s 742 mmHg 92%
11:00 -14°C° 0 mm 3 m/s 742 mmHg 91%
12:00 -13°C° 0 mm 3 m/s 742 mmHg 90%
13:00 -10°C° 0 mm 3 m/s 741 mmHg 89%
14:00 -9°C° 0 mm 3 m/s 741 mmHg 88%
15:00 -10°C° 0.1 mm 4 m/s 740 mmHg 90%
16:00 -10°C° 0.1 mm 5 m/s 740 mmHg 91%
17:00 -10°C° 0.1 mm 5 m/s 739 mmHg 93%
18:00 -10°C° 0.2 mm 5 m/s 739 mmHg 93%
19:00 -9°C° 0.2 mm 6 m/s 738 mmHg 93%
20:00 -9°C° 0.2 mm 6 m/s 738 mmHg 94%
21:00 -8°C° 0.2 mm 5 m/s 738 mmHg 94%
22:00 -10°C° 0.2 mm 5 m/s 738 mmHg 94%
23:00 -9°C° 0.2 mm 4 m/s 738 mmHg 94%

Mâine, 17 Ianuarie, Duminică

Timp Temperatura Precipitaţii Vânt Presiune Umiditate
00:00 -10°C° 0.1 mm 4 m/s 738 mmHg 94%
01:00 -12°C° 0.1 mm 3 m/s 738 mmHg 95%
02:00 -12°C° 0.1 mm 2 m/s 738 mmHg 95%
03:00 -13°C° 0 mm 2 m/s 739 mmHg 95%
04:00 -14°C° 0 mm 2 m/s 739 mmHg 95%
05:00 -16°C° 0 mm 2 m/s 739 mmHg 95%
06:00 -16°C° 0 mm 2 m/s 740 mmHg 95%
07:00 -17°C° 0 mm 2 m/s 740 mmHg 95%
08:00 -17°C° 0 mm 2 m/s 741 mmHg 94%
09:00 -16°C° 0 mm 2 m/s 741 mmHg 94%
10:00 -15°C° 0 mm 2 m/s 742 mmHg 93%
11:00 -15°C° 0 mm 2 m/s 743 mmHg 92%
12:00 -14°C° 0 mm 2 m/s 743 mmHg 91%
13:00 -13°C° 0 mm 2 m/s 743 mmHg 90%
14:00 -13°C° 0 mm 2 m/s 744 mmHg 89%
15:00 -13°C° 0 mm 2 m/s 744 mmHg 91%
16:00 -14°C° 0 mm 2 m/s 744 mmHg 93%
17:00 -15°C° 0 mm 2 m/s 744 mmHg 94%
18:00 -15°C° 0 mm 2 m/s 744 mmHg 95%
19:00 -16°C° 0 mm 2 m/s 745 mmHg 96%
20:00 -16°C° 0 mm 2 m/s 745 mmHg 96%
21:00 -16°C° 0 mm 2 m/s 745 mmHg 96%
22:00 -16°C° 0 mm 2 m/s 745 mmHg 95%
23:00 -16°C° 0 mm 2 m/s 746 mmHg 95%

Poimâine, 18 Ianuarie, Luni

Timp Temperatura Precipitaţii Vânt Presiune Umiditate
00:00 -16°C° 0 mm 2 m/s 746 mmHg 95%
01:00 -16°C° 0 mm 2 m/s 746 mmHg 95%
02:00 -16°C° 0 mm 2 m/s 746 mmHg 95%
03:00 -17°C° 0 mm 2 m/s 746 mmHg 95%
04:00 -17°C° 0 mm 2 m/s 746 mmHg 96%
05:00 -18°C° 0 mm 2 m/s 745 mmHg 96%
06:00 -18°C° 0 mm 2 m/s 746 mmHg 96%
07:00 -19°C° 0 mm 2 m/s 746 mmHg 95%
08:00 -17°C° 0 mm 1 m/s 746 mmHg 95%
09:00 -16°C° 0 mm 1 m/s 746 mmHg 93%
10:00 -15°C° 0 mm 1 m/s 746 mmHg 91%
11:00 -16°C° 0 mm 2 m/s 746 mmHg 89%
12:00 -15°C° 0 mm 2 m/s 746 mmHg 88%
13:00 -15°C° 0 mm 2 m/s 746 mmHg 87%
14:00 -14°C° 0 mm 2 m/s 746 mmHg 85%
15:00 -13°C° 0 mm 1 m/s 746 mmHg 88%
16:00 -13°C° 0 mm 1 m/s 746 mmHg 90%
17:00 -14°C° 0 mm 1 m/s 746 mmHg 93%
18:00 -14°C° 0 mm 1 m/s 746 mmHg 93%
19:00 -14°C° 0 mm 1 m/s 746 mmHg 93%
20:00 -14°C° 0 mm 1 m/s 746 mmHg 93%
21:00 -14°C° 0 mm 1 m/s 746 mmHg 93%
22:00 -16°C° 0 mm 2 m/s 746 mmHg 93%
23:00 -16°C° 0 mm 2 m/s 746 mmHg 93%

19 Ianuarie, Marţi

Timp Temperatura Precipitaţii Vânt Presiune Umiditate
00:00 -15°C° 0 mm 2 m/s 745 mmHg 92%
01:00 -15°C° 0 mm 2 m/s 745 mmHg 92%
02:00 -15°C° 0 mm 2 m/s 745 mmHg 92%
03:00 -15°C° 0 mm 3 m/s 745 mmHg 92%
04:00 -15°C° 0 mm 3 m/s 744 mmHg 92%
05:00 -15°C° 0 mm 3 m/s 744 mmHg 92%
06:00 -13°C° 0.1 mm 3 m/s 744 mmHg 93%
07:00 -12°C° 0.1 mm 3 m/s 744 mmHg 94%
08:00 -10°C° 0.1 mm 3 m/s 744 mmHg 95%
09:00 -10°C° 0.1 mm 4 m/s 743 mmHg 95%
10:00 -9°C° 0.1 mm 4 m/s 743 mmHg 94%
11:00 -8°C° 0.1 mm 4 m/s 743 mmHg 94%
12:00 -7°C° 0.1 mm 5 m/s 743 mmHg 95%
13:00 -6°C° 0.1 mm 5 m/s 743 mmHg 95%
14:00 -4°C° 0.1 mm 5 m/s 743 mmHg 95%
15:00 -5°C° 0 mm 5 m/s 742 mmHg 95%
16:00 -5°C° 0 mm 5 m/s 742 mmHg 94%
17:00 -4°C° 0 mm 4 m/s 742 mmHg 94%
18:00 -6°C° 0 mm 5 m/s 742 mmHg 93%
19:00 -7°C° 0 mm 5 m/s 742 mmHg 92%
20:00 -8°C° 0 mm 5 m/s 742 mmHg 90%
21:00 -8°C° 0 mm 5 m/s 742 mmHg 89%
22:00 -8°C° 0 mm 5 m/s 741 mmHg 89%
23:00 -8°C° 0 mm 5 m/s 741 mmHg 88%

20 Ianuarie, Miercuri

Timp Temperatura Precipitaţii Vânt Presiune Umiditate
00:00 -9°C° 0.1 mm 6 m/s 741 mmHg 90%
01:00 -8°C° 0.1 mm 6 m/s 741 mmHg 92%
02:00 -6°C° 0.1 mm 6 m/s 740 mmHg 95%
03:00 -6°C° 0.4 mm 6 m/s 740 mmHg 95%
04:00 -6°C° 0.4 mm 6 m/s 740 mmHg 95%
05:00 -6°C° 0.4 mm 6 m/s 739 mmHg 95%
06:00 -5°C° 0.4 mm 6 m/s 739 mmHg 95%
07:00 -5°C° 0.4 mm 6 m/s 739 mmHg 95%
08:00 -5°C° 0.4 mm 6 m/s 739 mmHg 95%
09:00 -5°C° 0.1 mm 6 m/s 739 mmHg 93%
10:00 -4°C° 0.1 mm 6 m/s 739 mmHg 91%
11:00 -4°C° 0.1 mm 6 m/s 739 mmHg 89%
12:00 -4°C° 0 mm 6 m/s 739 mmHg 89%
13:00 -3°C° 0 mm 6 m/s 739 mmHg 90%
14:00 -2°C° 0 mm 6 m/s 739 mmHg 91%
15:00 -2°C° 0 mm 6 m/s 739 mmHg 90%
16:00 -3°C° 0 mm 6 m/s 738 mmHg 89%
17:00 -3°C° 0 mm 6 m/s 738 mmHg 88%
18:00 -3°C° 0 mm 6 m/s 738 mmHg 87%
19:00 -3°C° 0 mm 7 m/s 738 mmHg 86%
20:00 -3°C° 0 mm 7 m/s 738 mmHg 85%
21:00 -3°C° 0 mm 7 m/s 738 mmHg 85%
22:00 -4°C° 0 mm 8 m/s 738 mmHg 84%
23:00 -4°C° 0 mm 8 m/s 738 mmHg 84%

21 Ianuarie, Joi

Timp Temperatura Precipitaţii Vânt Presiune Umiditate
00:00 -4°C° 0 mm 8 m/s 738 mmHg 84%
01:00 -2°C° 0 mm 7 m/s 738 mmHg 84%
02:00 -2°C° 0 mm 7 m/s 738 mmHg 84%
03:00 -2°C° 0 mm 7 m/s 737 mmHg 84%
04:00 -1°C° 0 mm 7 m/s 737 mmHg 84%
05:00 -1°C° 0 mm 7 m/s 737 mmHg 84%
06:00 -1°C° 0 mm 7 m/s 737 mmHg 83%
07:00 -1°C° 0 mm 7 m/s 737 mmHg 83%
08:00 -1°C° 0 mm 7 m/s 737 mmHg 82%
09:00 -1°C° 0 mm 7 m/s 736 mmHg 85%
10:00 -1°C° 0 mm 6 m/s 736 mmHg 88%
11:00 -1°C° 0 mm 6 m/s 736 mmHg 91%
12:00 -1°C° 0 mm 6 m/s 735 mmHg 93%
13:00 +1°C° 0 mm 6 m/s 735 mmHg 94%
14:00 +1°C° 0 mm 5 m/s 734 mmHg 96%
15:00 +1°C° 0 mm 6 m/s 734 mmHg 92%
16:00 0°C° 0 mm 7 m/s 734 mmHg 88%
17:00 0°C° 0 mm 7 m/s 734 mmHg 84%
18:00 0°C° 0 mm 7 m/s 734 mmHg 85%
19:00 +1°C° 0 mm 6 m/s 735 mmHg 86%
20:00 +1°C° 0 mm 6 m/s 735 mmHg 88%
21:00 -1°C° 0 mm 6 m/s 736 mmHg 88%
22:00 0°C° 0 mm 5 m/s 736 mmHg 88%
23:00 0°C° 0 mm 5 m/s 737 mmHg 88%
Arată mai mult

Formular de consimțământ

Meteoprog și furnizorii noștri de servicii pot stoca și accesa date personale, precum cookies, identificatori de dispozitiv sau alte tehnologii similare pe dispozitivul dumneavoastră și procesa astfel de date pentru a personaliza conținutul și reclamele, dar și pentru a oferi caracteristici de social media și pentru a analiza traficul.

  • Stocarea și/sau accesarea informațiilor pe dispozitivul dumneavoastră

    Cookies, identificatori de dispozitiv sau alte informații pot fi stocate sau accesate pe dispozitiv în scopurile indicate mai sus.

  • Reclame și conținut personalizat, evaluarea reclamelor și a conținutului, informații despre audiențe și dezvoltarea produselor

    Reclamele și conținutul pot fi personalizate pe baza unui profil. Pot fi adăugate date suplimentare pentru a personaliza mai bine reclamele și conținutul. Performanța reclamelor și conținutului poate fi măsurată. Pot fi obținute informații despre utilizatorii care au văzut reclamele și conținutul. Aceste date pot fi utilizate pentru a dezvolta sau îmbunătăți experiența utilizatorilor, sistemele și software-ul.

Dând clic pe ‘Sunt de acord’, permiteți utilizarea cookie-urilor menționate, a identificatorilor de dispozitiv, balizelor web sau altor tehnologii similare. Setările pot fi modificate din browser-ul dispozitivului dumneavoastră.

În anumite scopuri, interesele legitime pot prima asupra consimțământului. Puteți citi mai multe informații în acest sens în Politica privind Confidențialitatea Datelor și Cookie.